Regional Weather Roundup
Issued by NWS

Home | Current Version | Previous Version | Text Only | Print | Product List | Glossary Off
Versions: 1 2 3 4 5 6 7 8 9 10 11 12 13 14 15 16 17 18 19 20 21 22 23 24 25 26 27 28 29 30 31 32 33 34 35 36 37 38 39 40 41 42 43 44 45 46 47 48 49 50

000
ASUS43 KMPX 271201
RWRMN
WEATHER ROUNDUP FOR MINNESOTA
NATIONAL WEATHER SERVICE TWIN CITIES/CHANHASSEN MN
700 AM CDT FRI MAR 27 2015


NOTE: "FAIR" INDICATES FEW OR NO CLOUDS BELOW 12,000 FEET WITH NO
SIGNIFICANT WEATHER AND/OR OBSTRUCTIONS TO VISIBILITY. N/A MEANS
CURRENT SKY AND/OR WEATHER CONDITIONS ARE NOT AVAILABLE.

MNZ060>063-068>070-271300-
   Twin Cities Metro

CITY           SKY/WX    TMP DP  RH WIND       PRES   REMARKS
TWIN CITIES    FAIR      18   4  54 N5        30.28R WCI  11
6HR MIN TEMP:  17; 6HR MAX TEMP:  25;

ST PAUL        CLEAR     19   4  51 N8        30.30R WCI   9
CRYSTAL        CLEAR     15   4  61 N3        30.28R
BLAINE         CLEAR     16   7  67 N3        30.28R
LAKEVILLE      CLEAR     12   1  62 NW3       30.27R
EDEN PRAIRIE   CLEAR     18   3  52 N5        30.26R WCI  11
6HR MIN TEMP:  18; 6HR MAX TEMP:  25;

SOUTH ST PAUL  CLEAR     19   5  53 NW3       30.28R
LAKE ELMO      FAIR      18   9  68 N3        30.28R
$$
MNZ001>005-007-008-013>017-022>024-027-028-271300-
   Northwest Minnesota

CITY           SKY/WX    TMP DP  RH WIND       PRES   REMARKS
BEMIDJI        CLEAR      3   0  86 CALM      30.24F
HALLOCK        PTCLDY    12   9  85 S6        30.24F WCI   3
ROSEAU         FAIR      12   9  85 SE5       30.24S WCI   4
WARROAD        CLEAR     12   9  85 SE3       30.24F
THIEF RVR FALL PTCLDY    16  12  86 S3        30.24F
CROOKSTON      PTCLDY    10   9  92 S3        30.27S
FOSSTON        CLEAR      7   1  78 CALM      30.24F
DETROIT LAKES  CLEAR     10  10 100 CALM      30.25S
MOORHEAD       CLEAR     12  12 100 CALM      30.27F
PARK RAPIDS    CLEAR      7   1  76 CALM      30.23F
MAHNOMEN       FAIR       9   6  86 S5        30.25S WCI   1
$$
MNZ006-009>011-018-025>026-271300-
   North Central Minnesota

CITY           SKY/WX    TMP DP  RH WIND       PRES   REMARKS
BAUDETTE       CLEAR      7   3  84 SE3       30.23F
FLAG ISLAND    CLEAR      7   3  85 CALM      30.24S
INTL FALLS     CLEAR      4   0  83 CALM      30.25F
6HR MIN TEMP:   4; 6HR MAX TEMP:  11;

WASKISH        FAIR       5   3  92 CALM      30.25S
BIG FORK       CLEAR      3   0  85 CALM      30.25F
LONGVILLE      CLEAR      7   3  85 CALM      30.25F
GRAND RAPIDS   CLEAR      9   3  78 CALM      30.24S
ORR            CLEAR      0  -6  78 CALM      30.23S
COOK           CLEAR      1   0  92 CALM      30.26R
WALKER         FAIR       3  -1  83 CALM      30.25F
$$
MNZ012-019>021-037-271300-
   Northeast Minnesota

CITY           SKY/WX    TMP DP  RH WIND       PRES   REMARKS
DULUTH         CLEAR     11   3  70 N6        30.23R WCI   1
6HR MIN TEMP:  10; 6HR MAX TEMP:  17;

ELY            CLEAR      0  -2  92 CALM      30.24R
HIBBING        CLEAR      1  -4  79 CALM      30.25R
EVELETH        FAIR       3   0  85 CALM      30.25S
DULUTH HARBOR  CLEAR     19   9  63 CALM      30.30R
TWO HARBORS    CLEAR     14   5  67 CALM      30.24R
SILVER BAY     CLEAR      7   1  78 CALM      30.25R
GRAND MARAIS     N/A      6   1  80 CALM      30.31R
G MARAIS ARPRT PTCLDY     0  -9  65 N9        30.18R WCI -16
$$
MNZ029>031-032-039>041-046>048-054>057-064-271300-
   West Central Minnesota

CITY           SKY/WX    TMP DP  RH WIND       PRES   REMARKS
FERGUS FALLS   CLEAR     12   7  79 CALM      30.30S
WHEATON        CLEAR     14  10  85 CALM      30.30S
MORRIS         FAIR      12  10  92 CALM      30.27R
ALEXANDRIA     CLEAR     15   3  59 E3        30.25F
ELBOW LAKE     FAIR      12  11  95 CALM      30.26S
WADENA         CLEAR      7   3  85 CALM      30.24F
GLENWOOD       CLEAR     14   7  73 NE6       30.25F WCI   5
APPLETON       CLEAR     12  10  92 CALM      30.29R
BENSON         CLEAR     10   9  92 N3        30.27S
ORTONVILLE     CLEAR     14  10  85 W3        30.28S
MADISON        CLEAR     16  12  86 CALM      30.29R
WILLMAR        FAIR      14   3  62 NE3       30.27F
$$
MNZ033>034-036-042>043-049>051-058-059-271300-
   Central Minnesota

CITY           SKY/WX    TMP DP  RH WIND       PRES   REMARKS
ST CLOUD       CLEAR     12   6  77 CALM      30.28R
6HR MIN TEMP:  11; 6HR MAX TEMP:  21;

SAUK CENTRE    FAIR      11   4  75 CALM      30.27S
PAYNESVILLE    CLEAR      6   3  86 CALM      30.28S
AITKIN         CLEAR      9   3  78 CALM      30.26S
PINE RIVER     CLEAR      7   1  78 CALM      30.28F
BRAINERD       CLEAR      8   5  87 CALM      30.27S
STAPLES        CLEAR      9   1  72 CALM      30.26S
LONG PRAIRIE   FAIR      12   5  73 CALM      30.26F
LITTLE FALLS   CLEAR     10   5  79 CALM      30.28F
LITCHFIELD     CLEAR     14   7  73 CALM      30.28S
MAPLE LAKE     CLEAR     15  10  77 CALM      30.28S
$$
MNZ037-044-045-052-053-271300-
   East Central Minnesota

CITY           SKY/WX    TMP DP  RH WIND       PRES   REMARKS
PRINCETON      CLEAR     16   5  62 CALM      30.28R
MORA           CLEAR     14   5  67 CALM      30.30R
CAMBRIDGE      CLEAR     14   3  62 CALM      30.27R
RUSH CITY      CLEAR     14   6  69 CALM      30.29R
MOOSE LAKE     CLEAR      9   5  85 CALM      30.27R
HINCKLEY       FAIR      14   5  67 N5        30.28R WCI   6
CLOQUET        CLEAR      9   1  72 NW3       30.25R
MCGREGOR       CLEAR     10   5  79 CALM      30.27S
$$
MNZ071>073-080-081-089-090-097-098-271300-
   Southwest Minnesota

CITY           SKY/WX    TMP DP  RH WIND       PRES   REMARKS
MONTEVIDEO     CLEAR     16  10  79 NW5       30.29S WCI   9
GRANITE FALLS  CLEAR     13  10  87 CALM      30.29F
CANBY          CLEAR     15  10  83 W3        30.29R
MARSHALL       CLEAR     12   7  79 NW8       30.28S WCI   1
REDWOOD FALLS  CLEAR     18   7  62 N5        30.28S WCI  11
OLIVIA         CLEAR     14   9  79 NE5       30.27R WCI   6
PIPESTONE      CLEAR     16  10  79 CALM      30.24S
WINDOM         CLEAR     12  10  92 NW5       30.25S WCI   4
WORTHINGTON    CLEAR     12   9  85 NW7       30.25S WCI   2
JACKSON        CLEAR     16  10  79 N5        30.25S WCI   9
TRACY          CLEAR     17  13  84 W5        30.26S WCI  10
SLAYTON        CLEAR     14  10  84 CALM      30.25F
$$
MNZ065>067-074>077-082>085-091>093-271300-
   South Central Minnesota

CITY           SKY/WX    TMP DP  RH WIND       PRES   REMARKS
MANKATO        CLEAR     16   5  62 N6        30.26S WCI   7
NEW ULM        CLEAR     16   7  67 CALM      30.27S
ST JAMES       CLEAR     18  12  79 NW3       30.27F
FAIRMONT       CLEAR     18  10  73 NW6       30.24S WCI   9
GLENCOE        CLEAR     13   8  79 CALM      30.27S
FARIBAULT      CLEAR      9   3  78 CALM      30.26R
OWATONNA       CLEAR     10   5  79 CALM      30.25R
WASECA         CLEAR     14   9  79 VRB6      30.26R WCI   5
ALBERT LEA     CLEAR     16  10  79 N3        30.24R
$$
MNZ078>079-086>088-094>096-271300-
   Southeast Minnesota

CITY           SKY/WX    TMP DP  RH WIND       PRES   REMARKS
ROCHESTER      CLEAR     14   5  67 N6        30.22R WCI   5
6HR MIN TEMP:  13; 6HR MAX TEMP:  21;

RED WING       CLEAR     19   7  58 NE5       30.26R WCI  13
STANTON        CLEAR     10   5  82 CALM      30.26R
DODGE CENTER   PTCLDY    14   5  67 N5        30.22R WCI   6
WINONA         CLEAR     18  12  79 NW5       30.27R WCI  11
AUSTIN         CLEAR     12   5  73 N3        30.22S
PRESTON        CLEAR     15   7  72 CALM      30.22R
$$
ABBREVIATIONS USED IN REMARKS
   TC - TEMPERATURES IN CELSIUS
  WCI - WIND CHILL INDEX
   HX - HEAT INDEX
  VSB - VISIBILITY
$$


USA.gov is the U.S. government's official web portal to all federal, state and local government web resources and services.